Weather History for Port Angeles, WA

Change the Weather History Date:

Friday, December 13, 2013

  Actual Average Record
Temperature  
Mean Temperature 42 °F -  
Max Temperature 48 °F 46 °F 55 °F (1952)
Min Temperature 35 °F 34 °F 22 °F (1972)
Degree Days  
Heating Degree Days 24    
Moisture  
Dew Point 39 °F    
Average Humidity 89    
Maximum Humidity 97    
Minimum Humidity 77    
Precipitation  
Precipitation 0.00 in - - ()
Sea Level Pressure  
Sea Level Pressure 30.29 in    
Wind  
Wind Speed 3 mph (SW)    
Max Wind Speed 8 mph    
Max Gust Speed -    
Visibility 10 miles    
Events Rain    
Averages and records for this station are not official NWS values.
T = Trace of Precipitation, MM = Missing Value Source: NWS Daily Summary

Daily Weather History Graph

Daily Weather History Graph

Search for Another Location

Airport:

Trip Planner

Search our weather history database for the weather conditions in past years. The results will help you decide how hot, cold, wet, or windy it might be!

Date:

Astronomy

Dec. 13, 2013 Rise Set
Actual Time 7:56 AM PST 4:20 PM PST
Civil Twilight 7:19 AM PST 4:56 PM PST
Nautical Twilight 6:40 AM PST 5:36 PM PST
Astronomical Twilight 6:02 AM PST 6:14 PM PST
Moon 2:17 PM PST (12/13) 4:12 AM PST (12/13)
Length of Visible Light 9h 36m
Length of Day
8h 24m
Waxing Gibbous, 88% of the Moon is Illuminated
Dec 13
Waxing Gibbous
Dec 17
Full
Dec 25
Last Quarter
Jan 1
New
Jan 7
First Quarter

Hourly Weather History & Observations

Time (PST) Temp. Windchill Dew Point Humidity Pressure Visibility Wind Dir Wind Speed Gust Speed Precip Events Conditions
12:49 AM 37.4 °F 33.8 °F 35.6 °F 93% 30.12 in 10.0 mi SW 4.6 mph - N/A   Overcast
12:53 AM 37.9 °F 34.4 °F 37.0 °F 97% 30.13 in 10.0 mi SW 4.6 mph - N/A   Overcast
1:40 AM 37.9 °F 34.4 °F 36.0 °F 93% 30.14 in 10.0 mi WSW 4.6 mph - N/A   Overcast
1:53 AM 37.9 °F 33.5 °F 36.0 °F 93% 30.15 in 10.0 mi WSW 5.8 mph - N/A   Overcast
2:53 AM 39.0 °F 35.7 °F 37.0 °F 93% 30.18 in 10.0 mi SW 4.6 mph - N/A   Overcast
3:40 AM 37.9 °F - 37.0 °F 97% 30.18 in 9.0 mi Calm Calm - N/A   Overcast
3:50 AM 39.2 °F - 37.4 °F 93% 30.19 in 10.0 mi Calm Calm - N/A   Overcast
3:53 AM 39.0 °F - 37.0 °F 93% 30.19 in 10.0 mi Calm Calm - N/A   Overcast
4:51 AM 35.6 °F - 33.8 °F 93% 30.18 in 10.0 mi Calm Calm - N/A   Mostly Cloudy
4:53 AM 35.1 °F - 34.0 °F 96% 30.19 in 10.0 mi Calm Calm - N/A   Mostly Cloudy
5:09 AM 36.0 °F 33.3 °F 34.0 °F 93% 30.18 in 10.0 mi South 3.5 mph - N/A   Overcast
5:53 AM 36.0 °F 33.3 °F 34.0 °F 93% 30.21 in 10.0 mi South 3.5 mph - N/A   Mostly Cloudy
6:50 AM 37.4 °F - 35.6 °F 93% 30.24 in 10.0 mi Calm Calm - N/A   Overcast
6:53 AM 37.0 °F 34.5 °F 36.0 °F 96% 30.25 in 10.0 mi SSE 3.5 mph - N/A   Overcast
7:53 AM 39.9 °F 37.8 °F 37.9 °F 93% 30.25 in 10.0 mi SSW 3.5 mph - N/A   Overcast
8:38 AM 39.0 °F 35.7 °F 37.0 °F 93% 30.26 in 10.0 mi SSW 4.6 mph - N/A   Mostly Cloudy
8:53 AM 37.9 °F - 36.0 °F 93% 30.28 in 10.0 mi Calm Calm - N/A   Partly Cloudy
9:53 AM 42.1 °F - 39.9 °F 92% 30.30 in 10.0 mi Calm Calm - N/A   Clear
10:53 AM 48.0 °F - 42.1 °F 80% 30.32 in 10.0 mi ESE 4.6 mph - N/A   Partly Cloudy
11:53 AM 48.9 °F - 42.1 °F 77% 30.32 in 10.0 mi Variable 3.5 mph - N/A   Clear
12:36 PM 48.0 °F - 42.1 °F 80% 30.34 in 10.0 mi North 4.6 mph - N/A   Mostly Cloudy
12:53 PM 48.0 °F - 42.1 °F 80% 30.36 in 10.0 mi North 3.5 mph - N/A   Overcast
1:53 PM 48.9 °F - 42.1 °F 77% 30.36 in 10.0 mi Calm Calm - N/A   Overcast
2:28 PM 48.9 °F - 42.1 °F 77% 30.36 in 10.0 mi Calm Calm - N/A   Overcast
2:53 PM 48.9 °F - 42.1 °F 77% 30.37 in 10.0 mi SSE 4.6 mph - N/A   Overcast
3:53 PM 48.0 °F - 42.1 °F 80% 30.38 in 10.0 mi East 4.6 mph - N/A   Overcast
4:00 PM 48.0 °F - 42.1 °F 80% 30.37 in 10.0 mi East 3.5 mph - N/A   Overcast
4:25 PM 46.9 °F - 42.1 °F 83% 30.37 in 10.0 mi Calm Calm - N/A   Overcast
4:53 PM 46.0 °F - 42.1 °F 86% 30.37 in 10.0 mi Calm Calm - N/A   Overcast
5:53 PM 43.0 °F 39.5 °F 41.0 °F 93% 30.39 in 10.0 mi WSW 5.8 mph - N/A   Overcast
6:53 PM 42.1 °F - 39.0 °F 89% 30.39 in 10.0 mi Calm Calm - N/A   Scattered Clouds
7:53 PM 41.0 °F - 37.9 °F 89% 30.40 in 10.0 mi Calm Calm - N/A   Scattered Clouds
8:53 PM 42.1 °F 40.2 °F 39.0 °F 89% 30.38 in 10.0 mi West 3.5 mph - N/A   Overcast
9:53 PM 42.1 °F 37.7 °F 39.9 °F 92% 30.36 in 10.0 mi ESE 6.9 mph - 0.00 in Rain Light Rain
10:22 PM 43.0 °F 38.8 °F 41.0 °F 93% 30.39 in 10.0 mi NW 6.9 mph - 0.00 in   Mostly Cloudy
10:42 PM 44.1 °F 39.5 °F 41.0 °F 89% 30.40 in 10.0 mi West 8.1 mph - 0.00 in   Mostly Cloudy
10:53 PM 44.1 °F 40.8 °F 42.1 °F 93% 30.41 in 10.0 mi West 5.8 mph - 0.00 in   Mostly Cloudy
11:53 PM 44.1 °F 42.5 °F 42.1 °F 93% 30.43 in 10.0 mi SW 3.5 mph - N/A   Overcast